Location: Unspecified
(0.0000°N, 0.0000°E)
Time: 09:11:28
(UTC+00:00)

ARIANE 2 DEB - Pass Details

Date: 09 March 2026
Orbit: 561 x 35705 km, 7.7° (Epoch: 19 April)

Event Time Altitude Azimuth Distance (km) Brightness Sun altitude
Rises 17:55:56 0° 259° (W) 2,938 ? 3.6°
Reaches altitude 10° 17:57:27 10° 253° (WSW) 2,276 ? 3.2°
Maximum altitude 18:01:56 54° 173° (S) 1,579 ? 2.1°
Drops below altitude 10° 18:23:22 10° 99° (E) 9,813 ? -3.2°
Enters shadow 18:35:58 - 96° (E) 13,839 ? -6.4°
